Location: Ammerl�gen
(47.2167°N, 9.6000°E)
Time: 16:56:24
(UTC+00:00)

Cosmos 1553 Rocket - Pass Details

Date: 21 April 2021
Orbit: 942 x 1007 km, 82.9° (Epoch: 06 May)

Event Time Altitude Azimuth Distance (km) Brightness Sun altitude
Exits shadow 22:08:28 48° 242° (WSW) 1,223 4.4 -28.5°
Maximum altitude 22:09:42 56° 283° (WNW) 1,115 4.4 -28.6°
Drops below altitude 10° 22:15:43 10° 2° (N) 2,683 7.1 -28.9°
Sets 22:18:18 0° 6° (N) 3,640 8.0 -29.0°
